Torna al catalogo

STARLINK-30564

AttivoComunicazioniVLEO
NORAD 58043·PAYLOAD·🇺🇸 United States

Lanciato Oct 9, 2023 da Vandenberg Space Force Base

Loading…

Prossimi Passaggi (prossime 24 ore)

TLE

AggiornatoSource: CelesTrak SupGP

Epoca: Sep 14, 2026, 22:40 UTC

1 58043C 23156R   26257.94493056  .00052444  00000+0  15496-2 0  2571
2 58043  53.1570 277.7697 0001316  83.5246 182.3394 15.34361264    13

Traccia STARLINK-30564 in tempo reale con AllMySat

Download on the App Store